Terminal Aerodrome Forecast
Issued by NWS La Crosse, WI

Home | Current Version | Previous Version | Text Only | Print | Product List | Glossary On
Versions: 1 2 3 4 5 6 7 8 9 10 11 12 13 14 15 16 17 18 19 20 21 22 23 24 25 26 27 28 29 30 31 32
000
FTUS43 KARX 180525
TAFLSE
TAF
KLSE 180525Z 1806/1906 VRB03KT P6SM SKC
     FM180800 VRB03KT 4SM BR BKN004
     FM181000 VRB03KT 1/2SM FG OVC002
     FM181400 10006KT 2SM BR BKN008
     FM181500 11007KT P6SM SCT015=

USA.gov is the U.S. government's official web portal to all federal, state and local government web resources and services.